Time,TemperatureF,DewpointF,PressureIn,WindDirection,WindDirectionDegrees,WindSpeedMPH,WindSpeedGustMPH,Humidity,HourlyPrecipIn,Conditions,Clouds,dailyrainin,SoftwareType,DateUTC
2015-08-30 00:00:00,78.1,76.2,29.87,ESE,111,1.0,1.0,94,0.00,,,0.01,VWS V15.00,2015-08-30 04:00:00,
2015-08-30 00:01:00,78.1,76.2,29.87,ESE,111,1.0,0.0,94,0.00,,,0.00,VWS V15.00,2015-08-30 04:01:00,
2015-08-30 00:02:00,78.1,76.2,29.87,ESE,111,1.0,0.0,94,0.00,,,0.00,VWS V15.00,2015-08-30 04:02:00,
2015-08-30 00:03:00,78.1,76.2,29.87,ESE,111,1.0,0.0,94,0.00,,,0.00,VWS V15.00,2015-08-30 04:03:00,
2015-08-30 00:04:00,78.1,76.2,29.87,ESE,111,1.0,0.0,94,0.00,,,0.00,VWS V15.00,2015-08-30 04:04:00,
2015-08-30 00:05:00,78.1,76.2,29.87,ESE,111,1.0,0.0,94,0.00,,,0.00,VWS V15.00,2015-08-30 04:05:00,
2015-08-30 00:06:00,78.1,76.2,29.87,ESE,111,1.0,0.0,94,0.00,,,0.00,VWS V15.00,2015-08-30 04:06:00,
2015-08-30 00:07:00,77.9,76.0,29.87,ESE,111,1.0,0.0,94,0.00,,,0.00,VWS V15.00,2015-08-30 04:07:00,
2015-08-30 00:08:00,77.9,76.0,29.87,ESE,111,1.0,0.0,94,0.00,,,0.00,VWS V15.00,2015-08-30 04:08:00,
2015-08-30 00:09:00,77.9,76.0,29.87,ESE,111,1.0,2.0,94,0.00,,,0.00,VWS V15.00,2015-08-30 04:09:00,
2015-08-30 00:10:00,77.9,76.0,29.87,ESE,111,1.0,2.0,94,0.00,,,0.00,VWS V15.00,2015-08-30 04:10:00,
2015-08-30 00:11:00,77.9,76.0,29.87,ESE,111,1.0,0.0,94,0.00,,,0.00,VWS V15.00,2015-08-30 04:11:00,
2015-08-30 00:12:00,77.9,76.0,29.87,ESE,111,1.0,0.0,94,0.00,,,0.00,VWS V15.00,2015-08-30 04:12:00,
2015-08-30 00:13:00,77.9,76.0,29.87,ESE,111,1.0,0.0,94,0.00,,,0.00,VWS V15.00,2015-08-30 04:13:00,
2015-08-30 00:14:00,77.9,76.0,29.87,ESE,111,1.0,0.0,94,0.00,,,0.00,VWS V15.00,2015-08-30 04:14:00,
2015-08-30 00:15:00,77.9,76.0,29.87,ESE,111,1.0,0.0,94,0.00,,,0.00,VWS V15.00,2015-08-30 04:15:00,
2015-08-30 00:16:00,77.9,76.0,29.87,ESE,111,1.0,0.0,94,0.00,,,0.00,VWS V15.00,2015-08-30 04:16:00,
2015-08-30 00:17:00,77.9,76.0,29.87,ESE,111,1.0,0.0,94,0.00,,,0.00,VWS V15.00,2015-08-30 04:17:00,
2015-08-30 00:18:00,77.9,76.0,29.87,ESE,111,1.0,0.0,94,0.00,,,0.00,VWS V15.00,2015-08-30 04:18:00,
2015-08-30 00:19:00,77.7,75.8,29.87,ESE,111,1.0,0.0,94,0.00,,,0.00,VWS V15.00,2015-08-30 04:19:00,
2015-08-30 00:20:00,77.7,75.8,29.87,ESE,111,1.0,0.0,94,0.00,,,0.00,VWS V15.00,2015-08-30 04:20:00,
2015-08-30 00:21:00,77.7,75.8,29.87,ESE,111,1.0,0.0,94,0.00,,,0.00,VWS V15.00,2015-08-30 04:21:00,
2015-08-30 00:22:00,77.7,75.8,29.87,ESE,111,1.0,0.0,94,0.00,,,0.00,VWS V15.00,2015-08-30 04:22:00,
2015-08-30 00:23:00,77.7,75.8,29.87,ESE,111,1.0,0.0,94,0.00,,,0.00,VWS V15.00,2015-08-30 04:23:00,
2015-08-30 00:24:00,77.7,75.8,29.87,ESE,111,1.0,0.0,94,0.00,,,0.00,VWS V15.00,2015-08-30 04:24:00,
2015-08-30 00:25:00,77.7,75.8,29.87,ESE,111,1.0,0.0,94,0.00,,,0.00,VWS V15.00,2015-08-30 04:25:00,
2015-08-30 00:26:00,77.7,75.8,29.87,ESE,111,1.0,0.0,94,0.00,,,0.00,VWS V15.00,2015-08-30 04:26:00,
2015-08-30 00:27:00,77.7,75.8,29.87,ESE,111,1.0,0.0,94,0.00,,,0.00,VWS V15.00,2015-08-30 04:27:00,
2015-08-30 00:28:00,77.7,75.8,29.87,ESE,111,1.0,0.0,94,0.00,,,0.00,VWS V15.00,2015-08-30 04:28:00,
2015-08-30 00:29:00,77.7,75.8,29.87,ESE,111,1.0,0.0,94,0.00,,,0.00,VWS V15.00,2015-08-30 04:29:00,
2015-08-30 00:30:00,77.7,75.8,29.87,ESE,111,1.0,0.0,94,0.00,,,0.00,VWS V15.00,2015-08-30 04:30:00,
2015-08-30 00:31:00,77.7,75.8,29.87,ESE,111,1.0,0.0,94,0.00,,,0.00,VWS V15.00,2015-08-30 04:31:00,
2015-08-30 00:32:00,77.7,75.8,29.87,ESE,111,1.0,0.0,94,0.00,,,0.00,VWS V15.00,2015-08-30 04:32:00,
2015-08-30 00:33:00,77.7,75.8,29.87,ESE,111,1.0,0.0,94,0.00,,,0.00,VWS V15.00,2015-08-30 04:33:00,
2015-08-30 00:34:00,77.7,75.8,29.87,ESE,111,1.0,0.0,94,0.00,,,0.00,VWS V15.00,2015-08-30 04:34:00,
2015-08-30 00:35:00,77.7,75.8,29.87,ESE,111,1.0,0.0,94,0.00,,,0.00,VWS V15.00,2015-08-30 04:35:00,
2015-08-30 00:36:00,77.7,75.8,29.87,ESE,111,1.0,0.0,94,0.00,,,0.00,VWS V15.00,2015-08-30 04:36:00,
2015-08-30 00:37:00,77.7,75.8,29.87,ESE,111,1.0,0.0,94,0.00,,,0.00,VWS V15.00,2015-08-30 04:37:00,
2015-08-30 00:38:00,77.7,75.8,29.87,ESE,111,1.0,0.0,94,0.00,,,0.00,VWS V15.00,2015-08-30 04:38:00,
2015-08-30 00:39:00,77.6,75.7,29.87,ESE,111,1.0,0.0,94,0.00,,,0.00,VWS V15.00,2015-08-30 04:39:00,
2015-08-30 00:40:00,77.6,75.7,29.87,ESE,111,1.0,0.0,94,0.00,,,0.00,VWS V15.00,2015-08-30 04:40:00,
2015-08-30 00:41:00,77.6,75.7,29.87,ESE,111,1.0,0.0,94,0.00,,,0.00,VWS V15.00,2015-08-30 04:41:00,
2015-08-30 00:42:00,77.6,75.7,29.87,ESE,111,1.0,0.0,94,0.00,,,0.00,VWS V15.00,2015-08-30 04:42:00,
2015-08-30 00:43:00,77.6,75.7,29.87,ESE,111,1.0,1.0,94,0.00,,,0.00,VWS V15.00,2015-08-30 04:43:00,
2015-08-30 00:44:00,77.6,75.7,29.87,ESE,111,1.0,1.0,94,0.00,,,0.00,VWS V15.00,2015-08-30 04:44:00,
2015-08-30 00:45:00,77.6,75.7,29.87,ESE,111,6.0,6.0,94,0.00,,,0.00,VWS V15.00,2015-08-30 04:45:00,
2015-08-30 00:46:00,77.6,75.7,29.87,ESE,111,2.0,5.0,94,0.00,,,0.00,VWS V15.00,2015-08-30 04:46:00,
2015-08-30 00:47:00,77.6,75.7,29.87,ESE,111,1.0,5.0,94,0.00,,,0.00,VWS V15.00,2015-08-30 04:47:00,
2015-08-30 00:48:00,77.6,75.7,29.87,ESE,111,5.0,5.0,94,0.00,,,0.00,VWS V15.00,2015-08-30 04:48:00,
2015-08-30 00:49:00,77.6,75.7,29.87,ESE,111,2.0,5.0,94,0.00,,,0.00,VWS V15.00,2015-08-30 04:49:00,
2015-08-30 00:50:00,77.6,75.7,29.87,ESE,111,2.0,5.0,94,0.00,,,0.00,VWS V15.00,2015-08-30 04:50:00,
2015-08-30 00:51:00,77.6,75.7,29.87,ENE,72,3.0,5.0,94,0.00,,,0.00,VWS V15.00,2015-08-30 04:51:00,
2015-08-30 00:52:00,77.7,75.8,29.87,ENE,72,3.0,5.0,94,0.00,,,0.00,VWS V15.00,2015-08-30 04:52:00,
2015-08-30 00:53:00,77.7,75.8,29.87,ENE,72,2.0,5.0,94,0.00,,,0.00,VWS V15.00,2015-08-30 04:53:00,
2015-08-30 00:54:00,77.7,75.8,29.87,ENE,72,1.0,5.0,94,0.00,,,0.00,VWS V15.00,2015-08-30 04:54:00,
2015-08-30 00:55:00,77.7,75.8,29.87,ENE,72,1.0,5.0,94,0.00,,,0.00,VWS V15.00,2015-08-30 04:55:00,
2015-08-30 00:56:00,77.7,75.8,29.87,ENE,78,1.0,0.0,94,0.00,,,0.00,VWS V15.00,2015-08-30 04:56:00,
2015-08-30 00:57:00,77.7,75.8,29.87,ENE,78,1.0,0.0,94,0.00,,,0.00,VWS V15.00,2015-08-30 04:57:00,
2015-08-30 00:58:00,77.7,75.8,29.87,ENE,78,1.0,0.0,94,0.00,,,0.00,VWS V15.00,2015-08-30 04:58:00,
2015-08-30 00:59:00,77.7,75.8,29.87,ENE,65,1.0,5.0,94,0.00,,,0.00,VWS V15.00,2015-08-30 04:59:00,
2015-08-30 01:00:00,77.7,75.8,29.85,ENE,67,1.0,5.0,94,0.00,,,0.00,VWS V15.00,2015-08-30 05:00:00,
2015-08-30 01:01:00,77.7,75.8,29.85,East,88,3.0,5.0,94,0.00,,,0.00,VWS V15.00,2015-08-30 05:01:00,
2015-08-30 01:02:00,77.7,75.8,29.85,ESE,104,1.0,5.0,94,0.00,,,0.00,VWS V15.00,2015-08-30 05:02:00,
2015-08-30 01:03:00,77.7,75.8,29.85,ESE,105,3.0,5.0,94,0.00,,,0.00,VWS V15.00,2015-08-30 05:03:00,
2015-08-30 01:04:00,77.7,75.8,29.85,ESE,105,2.0,5.0,94,0.00,,,0.00,VWS V15.00,2015-08-30 05:04:00,
2015-08-30 01:05:00,77.7,75.8,29.85,ESE,105,1.0,5.0,94,0.00,,,0.00,VWS V15.00,2015-08-30 05:05:00,
2015-08-30 01:06:00,77.7,75.8,29.85,ESE,105,1.0,0.0,94,0.00,,,0.00,VWS V15.00,2015-08-30 05:06:00,
2015-08-30 01:07:00,77.6,75.7,29.85,ESE,105,1.0,0.0,94,0.00,,,0.00,VWS V15.00,2015-08-30 05:07:00,
2015-08-30 01:08:00,77.6,75.7,29.85,ESE,105,1.0,0.0,94,0.00,,,0.00,VWS V15.00,2015-08-30 05:08:00,
2015-08-30 01:09:00,77.6,75.7,29.85,ESE,105,1.0,0.0,94,0.00,,,0.00,VWS V15.00,2015-08-30 05:09:00,
2015-08-30 01:10:00,77.6,75.7,29.85,ESE,105,1.0,0.0,94,0.00,,,0.00,VWS V15.00,2015-08-30 05:10:00,
2015-08-30 01:11:00,77.6,75.7,29.85,ESE,105,1.0,0.0,94,0.00,,,0.00,VWS V15.00,2015-08-30 05:11:00,
2015-08-30 01:12:00,77.6,75.7,29.85,ESE,105,1.0,0.0,94,0.00,,,0.00,VWS V15.00,2015-08-30 05:12:00,
2015-08-30 01:13:00,77.6,75.7,29.85,ESE,105,1.0,0.0,94,0.00,,,0.00,VWS V15.00,2015-08-30 05:13:00,
2015-08-30 01:14:00,77.6,75.7,29.85,ESE,105,1.0,0.0,94,0.00,,,0.00,VWS V15.00,2015-08-30 05:14:00,
2015-08-30 01:15:00,77.6,75.7,29.84,ESE,105,1.0,0.0,94,0.00,,,0.00,VWS V15.00,2015-08-30 05:15:00,
2015-08-30 01:16:00,77.6,75.7,29.84,ESE,105,1.0,0.0,94,0.00,,,0.00,VWS V15.00,2015-08-30 05:16:00,
2015-08-30 01:17:00,77.6,75.7,29.84,ESE,105,1.0,0.0,94,0.00,,,0.00,VWS V15.00,2015-08-30 05:17:00,
2015-08-30 01:18:00,77.6,75.7,29.84,ESE,105,1.0,0.0,94,0.00,,,0.00,VWS V15.00,2015-08-30 05:18:00,
2015-08-30 01:19:00,77.6,75.7,29.84,ESE,105,1.0,0.0,94,0.00,,,0.00,VWS V15.00,2015-08-30 05:19:00,
2015-08-30 01:20:00,77.6,75.7,29.84,ESE,105,1.0,0.0,94,0.00,,,0.00,VWS V15.00,2015-08-30 05:20:00,
2015-08-30 01:21:00,77.6,75.7,29.84,ESE,105,1.0,0.0,94,0.00,,,0.00,VWS V15.00,2015-08-30 05:21:00,
2015-08-30 01:22:00,77.4,75.5,29.84,ESE,105,1.0,0.0,94,0.00,,,0.00,VWS V15.00,2015-08-30 05:22:00,
2015-08-30 01:23:00,77.4,75.5,29.84,ESE,105,1.0,0.0,94,0.00,,,0.00,VWS V15.00,2015-08-30 05:23:00,
2015-08-30 01:24:00,77.4,75.5,29.84,ESE,105,1.0,0.0,94,0.00,,,0.00,VWS V15.00,2015-08-30 05:24:00,
2015-08-30 01:25:00,77.4,75.5,29.84,ESE,105,1.0,0.0,94,0.00,,,0.00,VWS V15.00,2015-08-30 05:25:00,
2015-08-30 01:26:00,77.4,75.5,29.84,ESE,105,1.0,0.0,94,0.00,,,0.00,VWS V15.00,2015-08-30 05:26:00,
2015-08-30 01:27:00,77.4,75.5,29.84,ESE,105,1.0,0.0,94,0.00,,,0.00,VWS V15.00,2015-08-30 05:27:00,
2015-08-30 01:28:00,77.4,75.5,29.84,ESE,105,1.0,0.0,94,0.00,,,0.00,VWS V15.00,2015-08-30 05:28:00,
2015-08-30 01:29:00,77.4,75.5,29.84,ESE,105,1.0,0.0,94,0.00,,,0.00,VWS V15.00,2015-08-30 05:29:00,
2015-08-30 01:30:00,77.4,75.5,29.84,ESE,105,1.0,0.0,94,0.00,,,0.00,VWS V15.00,2015-08-30 05:30:00,
2015-08-30 01:31:00,77.4,75.5,29.84,ESE,105,1.0,0.0,94,0.00,,,0.00,VWS V15.00,2015-08-30 05:31:00,
2015-08-30 01:32:00,77.4,75.5,29.84,ESE,105,1.0,0.0,94,0.00,,,0.00,VWS V15.00,2015-08-30 05:32:00,
2015-08-30 01:33:00,77.4,75.5,29.84,ESE,105,1.0,0.0,94,0.00,,,0.00,VWS V15.00,2015-08-30 05:33:00,
2015-08-30 01:34:00,77.4,75.5,29.84,ESE,105,1.0,0.0,94,0.00,,,0.00,VWS V15.00,2015-08-30 05:34:00,
2015-08-30 01:35:00,77.4,75.5,29.84,ESE,105,1.0,0.0,94,0.00,,,0.00,VWS V15.00,2015-08-30 05:35:00,
2015-08-30 01:36:00,77.4,75.5,29.84,ESE,105,1.0,0.0,94,0.00,,,0.00,VWS V15.00,2015-08-30 05:36:00,
2015-08-30 01:37:00,77.4,75.5,29.84,ESE,105,1.0,0.0,94,0.00,,,0.00,VWS V15.00,2015-08-30 05:37:00,
2015-08-30 01:38:00,77.4,75.5,29.84,ESE,105,1.0,0.0,94,0.00,,,0.00,VWS V15.00,2015-08-30 05:38:00,
2015-08-30 01:39:00,77.4,75.5,29.84,ESE,105,1.0,0.0,94,0.00,,,0.00,VWS V15.00,2015-08-30 05:39:00,
2015-08-30 01:40:00,77.4,75.5,29.84,ESE,105,1.0,0.0,94,0.00,,,0.00,VWS V15.00,2015-08-30 05:40:00,
2015-08-30 01:41:00,77.4,75.5,29.84,ESE,105,1.0,0.0,94,0.00,,,0.00,VWS V15.00,2015-08-30 05:41:00,
2015-08-30 01:42:00,77.4,75.5,29.84,ESE,105,1.0,0.0,94,0.00,,,0.00,VWS V15.00,2015-08-30 05:42:00,
2015-08-30 01:43:00,77.4,75.5,29.84,ESE,105,1.0,0.0,94,0.00,,,0.00,VWS V15.00,2015-08-30 05:43:00,
2015-08-30 01:44:00,77.4,75.5,29.84,ESE,105,1.0,0.0,94,0.00,,,0.00,VWS V15.00,2015-08-30 05:44:00,
2015-08-30 01:45:00,77.4,75.5,29.84,ESE,105,1.0,0.0,94,0.00,,,0.00,VWS V15.00,2015-08-30 05:45:00,
2015-08-30 01:46:00,77.4,75.5,29.84,ESE,105,1.0,0.0,94,0.00,,,0.00,VWS V15.00,2015-08-30 05:46:00,
2015-08-30 01:47:00,77.4,75.5,29.84,ESE,105,1.0,0.0,94,0.00,,,0.00,VWS V15.00,2015-08-30 05:47:00,
2015-08-30 01:48:00,77.4,75.5,29.84,ESE,105,1.0,0.0,94,0.00,,,0.00,VWS V15.00,2015-08-30 05:48:00,
2015-08-30 01:49:00,77.4,75.5,29.84,ESE,105,1.0,0.0,94,0.00,,,0.00,VWS V15.00,2015-08-30 05:49:00,
2015-08-30 01:50:00,77.4,75.5,29.84,ESE,105,1.0,0.0,94,0.00,,,0.00,VWS V15.00,2015-08-30 05:50:00,
2015-08-30 01:51:00,77.4,75.5,29.84,ESE,105,1.0,0.0,94,0.00,,,0.00,VWS V15.00,2015-08-30 05:51:00,
2015-08-30 01:52:00,77.4,75.5,29.84,ESE,105,1.0,0.0,94,0.00,,,0.00,VWS V15.00,2015-08-30 05:52:00,
2015-08-30 01:53:00,77.4,75.5,29.84,ESE,105,1.0,0.0,94,0.00,,,0.00,VWS V15.00,2015-08-30 05:53:00,
2015-08-30 01:54:00,77.4,75.5,29.84,ESE,105,1.0,0.0,94,0.00,,,0.00,VWS V15.00,2015-08-30 05:54:00,
2015-08-30 01:55:00,77.4,75.5,29.84,ESE,105,1.0,0.0,94,0.00,,,0.00,VWS V15.00,2015-08-30 05:55:00,
2015-08-30 01:56:00,77.4,75.5,29.84,ESE,105,1.0,0.0,94,0.00,,,0.00,VWS V15.00,2015-08-30 05:56:00,
2015-08-30 01:57:00,77.4,75.5,29.84,ESE,105,1.0,0.0,94,0.00,,,0.00,VWS V15.00,2015-08-30 05:57:00,
2015-08-30 01:58:00,77.4,75.5,29.84,ESE,105,1.0,0.0,94,0.00,,,0.00,VWS V15.00,2015-08-30 05:58:00,
2015-08-30 01:59:00,77.4,75.5,29.84,ESE,105,1.0,0.0,94,0.00,,,0.00,VWS V15.00,2015-08-30 05:59:00,
2015-08-30 02:00:00,77.4,75.5,29.84,ESE,105,1.0,0.0,94,0.00,,,0.00,VWS V15.00,2015-08-30 06:00:00,
2015-08-30 02:01:00,77.4,75.5,29.84,ESE,105,1.0,0.0,94,0.00,,,0.00,VWS V15.00,2015-08-30 06:01:00,
2015-08-30 02:02:00,77.4,75.5,29.84,ESE,105,1.0,0.0,94,0.00,,,0.00,VWS V15.00,2015-08-30 06:02:00,
2015-08-30 02:03:00,77.4,75.5,29.84,ESE,105,1.0,0.0,94,0.00,,,0.00,VWS V15.00,2015-08-30 06:03:00,
2015-08-30 02:04:00,77.4,75.5,29.84,ESE,105,1.0,0.0,94,0.00,,,0.00,VWS V15.00,2015-08-30 06:04:00,
2015-08-30 02:05:00,77.4,75.5,29.84,ESE,105,1.0,0.0,94,0.00,,,0.00,VWS V15.00,2015-08-30 06:05:00,
2015-08-30 02:06:00,77.4,75.5,29.84,ESE,105,1.0,0.0,94,0.00,,,0.00,VWS V15.00,2015-08-30 06:06:00,
2015-08-30 02:07:00,77.4,75.5,29.84,ESE,105,1.0,0.0,94,0.00,,,0.00,VWS V15.00,2015-08-30 06:07:00,
2015-08-30 02:08:00,77.4,75.5,29.84,ESE,105,1.0,0.0,94,0.00,,,0.00,VWS V15.00,2015-08-30 06:08:00,
2015-08-30 02:09:00,77.4,75.5,29.84,ESE,105,1.0,0.0,94,0.00,,,0.00,VWS V15.00,2015-08-30 06:09:00,
2015-08-30 02:10:00,77.4,75.5,29.84,ESE,105,1.0,0.0,94,0.00,,,0.00,VWS V15.00,2015-08-30 06:10:00,
2015-08-30 02:11:00,77.4,75.5,29.84,ESE,105,1.0,0.0,94,0.00,,,0.00,VWS V15.00,2015-08-30 06:11:00,
2015-08-30 02:12:00,77.4,75.5,29.84,ESE,105,1.0,0.0,94,0.00,,,0.00,VWS V15.00,2015-08-30 06:12:00,
2015-08-30 02:13:00,77.4,75.5,29.84,ESE,105,1.0,0.0,94,0.00,,,0.00,VWS V15.00,2015-08-30 06:13:00,
2015-08-30 02:14:00,77.4,75.5,29.84,ESE,105,1.0,0.0,94,0.00,,,0.00,VWS V15.00,2015-08-30 06:14:00,
2015-08-30 02:15:00,77.4,75.5,29.83,ESE,105,1.0,0.0,94,0.00,,,0.00,VWS V15.00,2015-08-30 06:15:00,
2015-08-30 02:16:00,77.4,75.5,29.83,ESE,105,1.0,0.0,94,0.00,,,0.00,VWS V15.00,2015-08-30 06:16:00,
2015-08-30 02:17:00,77.4,75.5,29.83,ESE,105,1.0,0.0,94,0.00,,,0.00,VWS V15.00,2015-08-30 06:17:00,
2015-08-30 02:18:00,77.4,75.5,29.83,ESE,105,1.0,0.0,94,0.00,,,0.00,VWS V15.00,2015-08-30 06:18:00,
2015-08-30 02:19:00,77.4,75.5,29.83,ESE,105,1.0,0.0,94,0.00,,,0.00,VWS V15.00,2015-08-30 06:19:00,
2015-08-30 02:20:00,77.4,75.5,29.83,ESE,105,1.0,0.0,94,0.00,,,0.00,VWS V15.00,2015-08-30 06:20:00,
2015-08-30 02:21:00,77.4,75.5,29.83,ESE,105,1.0,0.0,94,0.00,,,0.00,VWS V15.00,2015-08-30 06:21:00,
2015-08-30 02:22:00,77.4,75.5,29.83,ESE,105,1.0,0.0,94,0.00,,,0.00,VWS V15.00,2015-08-30 06:22:00,
2015-08-30 02:23:00,77.6,75.7,29.83,ESE,105,1.0,0.0,94,0.00,,,0.00,VWS V15.00,2015-08-30 06:23:00,
2015-08-30 02:24:00,77.6,75.7,29.83,ESE,105,1.0,0.0,94,0.00,,,0.00,VWS V15.00,2015-08-30 06:24:00,
2015-08-30 02:25:00,77.6,75.7,29.83,ESE,105,1.0,0.0,94,0.00,,,0.00,VWS V15.00,2015-08-30 06:25:00,
2015-08-30 02:26:00,77.6,75.7,29.83,ESE,105,1.0,0.0,94,0.00,,,0.00,VWS V15.00,2015-08-30 06:26:00,
2015-08-30 02:27:00,77.6,75.7,29.83,ESE,105,1.0,0.0,94,0.00,,,0.00,VWS V15.00,2015-08-30 06:27:00,
2015-08-30 02:28:00,77.6,75.7,29.83,ESE,105,1.0,0.0,94,0.00,,,0.00,VWS V15.00,2015-08-30 06:28:00,
2015-08-30 02:29:00,77.6,76.1,29.83,ESE,105,1.0,0.0,95,0.00,,,0.00,VWS V15.00,2015-08-30 06:29:00,
2015-08-30 02:30:00,77.6,76.1,29.83,ESE,105,1.0,0.0,95,0.00,,,0.00,VWS V15.00,2015-08-30 06:30:00,
2015-08-30 02:31:00,77.4,75.5,29.84,ESE,105,1.0,0.0,94,0.00,,,0.00,VWS V15.00,2015-08-30 06:31:00,
2015-08-30 02:32:00,77.7,76.2,29.83,ESE,105,1.0,0.0,95,0.00,,,0.00,VWS V15.00,2015-08-30 06:32:00,
2015-08-30 02:33:00,77.7,76.2,29.83,ESE,105,1.0,0.0,95,0.00,,,0.00,VWS V15.00,2015-08-30 06:33:00,
2015-08-30 02:34:00,77.7,76.2,29.83,ESE,105,1.0,0.0,95,0.00,,,0.00,VWS V15.00,2015-08-30 06:34:00,
2015-08-30 02:35:00,77.7,76.2,29.83,ESE,105,1.0,0.0,95,0.00,,,0.00,VWS V15.00,2015-08-30 06:35:00,
2015-08-30 02:36:00,77.7,76.2,29.83,ESE,105,1.0,0.0,95,0.00,,,0.00,VWS V15.00,2015-08-30 06:36:00,
2015-08-30 02:37:00,77.7,75.8,29.83,ESE,105,1.0,0.0,94,0.00,,,0.00,VWS V15.00,2015-08-30 06:37:00,
2015-08-30 02:38:00,77.7,75.8,29.83,ESE,105,1.0,0.0,94,0.00,,,0.00,VWS V15.00,2015-08-30 06:38:00,
2015-08-30 02:39:00,77.7,75.8,29.83,ESE,105,1.0,0.0,94,0.00,,,0.00,VWS V15.00,2015-08-30 06:39:00,
2015-08-30 02:40:00,77.7,75.8,29.83,ESE,105,1.0,0.0,94,0.00,,,0.00,VWS V15.00,2015-08-30 06:40:00,
2015-08-30 02:41:00,77.7,75.8,29.83,ESE,105,1.0,0.0,94,0.00,,,0.00,VWS V15.00,2015-08-30 06:41:00,
2015-08-30 02:42:00,77.7,75.8,29.83,ESE,105,1.0,0.0,94,0.00,,,0.00,VWS V15.00,2015-08-30 06:42:00,
2015-08-30 02:43:00,77.7,75.8,29.83,ESE,105,1.0,0.0,94,0.00,,,0.00,VWS V15.00,2015-08-30 06:43:00,
2015-08-30 02:44:00,77.7,75.8,29.83,ESE,105,1.0,0.0,94,0.00,,,0.00,VWS V15.00,2015-08-30 06:44:00,
2015-08-30 02:45:00,77.7,75.8,29.83,ESE,105,1.0,0.0,94,0.00,,,0.00,VWS V15.00,2015-08-30 06:45:00,
2015-08-30 02:46:00,77.7,76.2,29.83,ESE,105,1.0,0.0,95,0.00,,,0.00,VWS V15.00,2015-08-30 06:46:00,
2015-08-30 02:47:00,77.7,76.2,29.83,ESE,105,1.0,0.0,95,0.00,,,0.00,VWS V15.00,2015-08-30 06:47:00,
2015-08-30 02:48:00,77.9,76.4,29.83,ESE,122,3.0,6.0,95,0.00,,,0.00,VWS V15.00,2015-08-30 06:48:00,
2015-08-30 02:49:00,77.9,76.4,29.83,ESE,119,1.0,6.0,95,0.00,,,0.00,VWS V15.00,2015-08-30 06:49:00,
2015-08-30 02:50:00,77.9,76.4,29.83,East,92,6.0,6.0,95,0.00,,,0.00,VWS V15.00,2015-08-30 06:50:00,
2015-08-30 02:51:00,77.9,76.4,29.83,East,85,1.0,5.0,95,0.00,,,0.00,VWS V15.00,2015-08-30 06:51:00,
2015-08-30 02:52:00,77.9,76.4,29.83,East,92,1.0,5.0,95,0.00,,,0.00,VWS V15.00,2015-08-30 06:52:00,
2015-08-30 02:53:00,77.9,76.4,29.83,ENE,70,2.0,8.0,95,0.00,,,0.00,VWS V15.00,2015-08-30 06:53:00,
2015-08-30 02:54:00,77.9,76.4,29.83,South,171,6.0,8.0,95,0.00,,,0.00,VWS V15.00,2015-08-30 06:54:00,
2015-08-30 02:55:00,77.9,76.4,29.83,ESE,103,7.0,8.0,95,0.00,,,0.00,VWS V15.00,2015-08-30 06:55:00,
2015-08-30 02:56:00,77.9,76.0,29.83,SE,127,7.0,7.0,94,0.00,,,0.00,VWS V15.00,2015-08-30 06:56:00,
2015-08-30 02:57:00,77.9,76.0,29.83,SE,136,1.0,6.0,94,0.00,,,0.00,VWS V15.00,2015-08-30 06:57:00,
2015-08-30 02:58:00,77.9,76.0,29.83,SE,136,1.0,6.0,94,0.00,,,0.00,VWS V15.00,2015-08-30 06:58:00,
2015-08-30 02:59:00,77.9,76.0,29.83,SE,136,1.0,6.0,94,0.00,,,0.00,VWS V15.00,2015-08-30 06:59:00,
2015-08-30 03:00:00,77.9,76.0,29.83,SSE,166,3.0,6.0,94,0.00,,,0.00,VWS V15.00,2015-08-30 07:00:00,
2015-08-30 03:01:00,77.9,76.0,29.83,SSE,166,1.0,2.0,94,0.00,,,0.00,VWS V15.00,2015-08-30 07:01:00,
2015-08-30 03:02:00,77.9,76.0,29.83,SSE,168,3.0,7.0,94,0.00,,,0.00,VWS V15.00,2015-08-30 07:02:00,
2015-08-30 03:03:00,77.9,76.0,29.83,SE,142,1.0,7.0,94,0.00,,,0.00,VWS V15.00,2015-08-30 07:03:00,
2015-08-30 03:04:00,77.9,76.0,29.83,SE,142,1.0,7.0,94,0.00,,,0.00,VWS V15.00,2015-08-30 07:04:00,
2015-08-30 03:05:00,77.9,76.0,29.83,SE,142,1.0,7.0,94,0.00,,,0.00,VWS V15.00,2015-08-30 07:05:00,
2015-08-30 03:06:00,77.9,76.0,29.83,SE,142,1.0,0.0,94,0.00,,,0.00,VWS V15.00,2015-08-30 07:06:00,
2015-08-30 03:07:00,77.7,75.8,29.83,SE,142,1.0,0.0,94,0.00,,,0.00,VWS V15.00,2015-08-30 07:07:00,
2015-08-30 03:08:00,77.7,75.8,29.83,SE,142,1.0,0.0,94,0.00,,,0.00,VWS V15.00,2015-08-30 07:08:00,
2015-08-30 03:09:00,77.7,75.8,29.83,SE,142,1.0,0.0,94,0.00,,,0.00,VWS V15.00,2015-08-30 07:09:00,
2015-08-30 03:10:00,77.7,75.8,29.83,SE,142,1.0,1.0,94,0.00,,,0.00,VWS V15.00,2015-08-30 07:10:00,
2015-08-30 03:11:00,77.7,75.8,29.83,SE,142,1.0,1.0,94,0.00,,,0.00,VWS V15.00,2015-08-30 07:11:00,
2015-08-30 03:12:00,77.7,75.8,29.83,SE,142,1.0,1.0,94,0.00,,,0.00,VWS V15.00,2015-08-30 07:12:00,
2015-08-30 03:13:00,77.7,75.8,29.83,SE,142,1.0,1.0,94,0.00,,,0.00,VWS V15.00,2015-08-30 07:13:00,
2015-08-30 03:14:00,77.7,75.8,29.83,SE,142,1.0,1.0,94,0.00,,,0.00,VWS V15.00,2015-08-30 07:14:00,
2015-08-30 03:15:00,77.7,75.8,29.83,SE,142,1.0,1.0,94,0.00,,,0.00,VWS V15.00,2015-08-30 07:15:00,
2015-08-30 03:16:00,77.7,75.8,29.83,SE,142,3.0,3.0,94,0.00,,,0.00,VWS V15.00,2015-08-30 07:16:00,
2015-08-30 03:17:00,77.7,75.8,29.83,SE,142,1.0,4.0,94,0.00,,,0.00,VWS V15.00,2015-08-30 07:17:00,
2015-08-30 03:18:00,77.6,75.7,29.83,SE,142,1.0,4.0,94,0.00,,,0.00,VWS V15.00,2015-08-30 07:18:00,
2015-08-30 03:19:00,77.6,75.7,29.83,SE,142,1.0,4.0,94,0.00,,,0.00,VWS V15.00,2015-08-30 07:19:00,
2015-08-30 03:20:00,77.6,75.7,29.83,SE,142,1.0,4.0,94,0.00,,,0.00,VWS V15.00,2015-08-30 07:20:00,
2015-08-30 03:21:00,77.6,75.7,29.83,SE,142,1.0,0.0,94,0.00,,,0.00,VWS V15.00,2015-08-30 07:21:00,
2015-08-30 03:22:00,77.6,75.7,29.83,SE,142,1.0,0.0,94,0.00,,,0.00,VWS V15.00,2015-08-30 07:22:00,
2015-08-30 03:23:00,77.6,75.7,29.83,SE,142,1.0,0.0,94,0.00,,,0.00,VWS V15.00,2015-08-30 07:23:00,
2015-08-30 03:24:00,77.6,75.7,29.83,SE,142,2.0,2.0,94,0.00,,,0.00,VWS V15.00,2015-08-30 07:24:00,
2015-08-30 03:25:00,77.6,75.7,29.83,SE,142,2.0,2.0,94,0.00,,,0.00,VWS V15.00,2015-08-30 07:25:00,
2015-08-30 03:26:00,77.6,75.7,29.83,SE,143,3.0,5.0,94,0.00,,,0.00,VWS V15.00,2015-08-30 07:26:00,
2015-08-30 03:27:00,77.4,75.5,29.83,SE,141,3.0,5.0,94,0.00,,,0.00,VWS V15.00,2015-08-30 07:27:00,
2015-08-30 03:28:00,77.4,75.5,29.83,SE,142,3.0,5.0,94,0.00,,,0.00,VWS V15.00,2015-08-30 07:28:00,
2015-08-30 03:29:00,77.4,75.5,29.83,SE,143,1.0,6.0,94,0.00,,,0.00,VWS V15.00,2015-08-30 07:29:00,
2015-08-30 03:30:00,77.4,75.5,29.83,SE,143,1.0,6.0,94,0.00,,,0.00,VWS V15.00,2015-08-30 07:30:00,
2015-08-30 03:31:00,77.4,75.5,29.83,SE,143,1.0,0.0,94,0.00,,,0.00,VWS V15.00,2015-08-30 07:31:00,
2015-08-30 03:32:00,77.4,75.5,29.83,SE,143,3.0,3.0,94,0.00,,,0.00,VWS V15.00,2015-08-30 07:32:00,
2015-08-30 03:33:00,77.4,75.5,29.83,SE,143,1.0,2.0,94,0.00,,,0.00,VWS V15.00,2015-08-30 07:33:00,
2015-08-30 03:34:00,77.2,75.3,29.83,SE,143,1.0,2.0,94,0.00,,,0.00,VWS V15.00,2015-08-30 07:34:00,
2015-08-30 03:35:00,77.2,75.3,29.83,SSE,152,7.0,7.0,94,0.00,,,0.00,VWS V15.00,2015-08-30 07:35:00,
2015-08-30 03:36:00,77.2,75.3,29.83,SSE,153,1.0,7.0,94,0.00,,,0.00,VWS V15.00,2015-08-30 07:36:00,
2015-08-30 03:37:00,77.2,75.3,29.83,SSE,153,1.0,7.0,94,0.00,,,0.00,VWS V15.00,2015-08-30 07:37:00,
2015-08-30 03:38:00,77.2,75.3,29.83,SSE,153,1.0,7.0,94,0.00,,,0.00,VWS V15.00,2015-08-30 07:38:00,
2015-08-30 03:39:00,77.0,75.1,29.83,SSE,150,1.0,7.0,94,0.00,,,0.00,VWS V15.00,2015-08-30 07:39:00,
2015-08-30 03:40:00,77.0,75.1,29.83,ESE,122,7.0,7.0,94,0.00,,,0.00,VWS V15.00,2015-08-30 07:40:00,
2015-08-30 03:41:00,77.0,75.1,29.83,SE,125,1.0,6.0,94,0.00,,,0.00,VWS V15.00,2015-08-30 07:41:00,
2015-08-30 03:42:00,77.0,74.8,29.83,SE,126,1.0,6.0,93,0.00,,,0.00,VWS V15.00,2015-08-30 07:42:00,
2015-08-30 03:43:00,77.0,74.8,29.83,SE,126,1.0,6.0,93,0.00,,,0.00,VWS V15.00,2015-08-30 07:43:00,
2015-08-30 03:44:00,76.8,74.9,29.83,SE,126,1.0,6.0,94,0.00,,,0.00,VWS V15.00,2015-08-30 07:44:00,
2015-08-30 03:45:00,76.8,74.6,29.83,SE,126,3.0,6.0,93,0.00,,,0.00,VWS V15.00,2015-08-30 07:45:00,
2015-08-30 03:46:00,76.8,74.6,29.83,SE,126,2.0,5.0,93,0.00,,,0.00,VWS V15.00,2015-08-30 07:46:00,
2015-08-30 03:47:00,76.8,74.6,29.83,SE,126,1.0,5.0,93,0.00,,,0.00,VWS V15.00,2015-08-30 07:47:00,
2015-08-30 03:48:00,76.8,74.9,29.83,SE,126,1.0,5.0,94,0.00,,,0.00,VWS V15.00,2015-08-30 07:48:00,
2015-08-30 03:49:00,76.8,74.9,29.83,SE,126,1.0,5.0,94,0.00,,,0.00,VWS V15.00,2015-08-30 07:49:00,
2015-08-30 03:50:00,76.7,74.8,29.83,SE,126,1.0,5.0,94,0.00,,,0.00,VWS V15.00,2015-08-30 07:50:00,
2015-08-30 03:51:00,76.7,74.8,29.83,SE,126,1.0,0.0,94,0.00,,,0.00,VWS V15.00,2015-08-30 07:51:00,
2015-08-30 03:52:00,76.7,74.8,29.83,SE,126,1.0,0.0,94,0.00,,,0.00,VWS V15.00,2015-08-30 07:52:00,
2015-08-30 03:53:00,76.7,74.8,29.83,SE,126,1.0,1.0,94,0.00,,,0.00,VWS V15.00,2015-08-30 07:53:00,
2015-08-30 03:54:00,76.7,74.8,29.83,SE,126,1.0,1.0,94,0.00,,,0.00,VWS V15.00,2015-08-30 07:54:00,
2015-08-30 03:55:00,76.7,74.8,29.83,SE,126,1.0,1.0,94,0.00,,,0.00,VWS V15.00,2015-08-30 07:55:00,
2015-08-30 03:56:00,76.7,74.8,29.83,SE,126,1.0,1.0,94,0.00,,,0.00,VWS V15.00,2015-08-30 07:56:00,
2015-08-30 03:57:00,76.7,74.8,29.83,SE,130,3.0,4.0,94,0.00,,,0.00,VWS V15.00,2015-08-30 07:57:00,
2015-08-30 03:58:00,76.7,74.8,29.83,South,172,1.0,7.0,94,0.00,,,0.00,VWS V15.00,2015-08-30 07:58:00,
2015-08-30 03:59:00,76.7,74.8,29.83,ESE,122,6.0,8.0,94,0.00,,,0.00,VWS V15.00,2015-08-30 07:59:00,
2015-08-30 04:00:00,76.7,74.8,29.83,South,173,3.0,8.0,94,0.00,,,0.00,VWS V15.00,2015-08-30 08:00:00,
2015-08-30 04:01:00,76.7,74.8,29.83,SSW,192,3.0,7.0,94,0.00,,,0.00,VWS V15.00,2015-08-30 08:01:00,
2015-08-30 04:02:00,76.7,74.8,29.83,SSW,209,6.0,8.0,94,0.00,,,0.00,VWS V15.00,2015-08-30 08:02:00,
2015-08-30 04:03:00,76.7,74.8,29.83,South,178,3.0,8.0,94,0.00,,,0.00,VWS V15.00,2015-08-30 08:03:00,
2015-08-30 04:04:00,76.7,74.8,29.83,South,178,1.0,8.0,94,0.00,,,0.00,VWS V15.00,2015-08-30 08:04:00,
2015-08-30 04:05:00,76.7,74.8,29.83,South,180,5.0,8.0,94,0.00,,,0.00,VWS V15.00,2015-08-30 08:05:00,
2015-08-30 04:06:00,76.7,74.5,29.83,SSW,202,7.0,9.0,93,0.00,,,0.00,VWS V15.00,2015-08-30 08:06:00,
2015-08-30 04:07:00,76.5,74.3,29.83,SSE,150,1.0,9.0,93,0.00,,,0.00,VWS V15.00,2015-08-30 08:07:00,
2015-08-30 04:08:00,76.5,74.3,29.83,SSW,196,1.0,9.0,93,0.00,,,0.00,VWS V15.00,2015-08-30 08:08:00,
2015-08-30 04:09:00,76.3,74.1,29.83,SSE,157,3.0,9.0,93,0.00,,,0.00,VWS V15.00,2015-08-30 08:09:00,
2015-08-30 04:10:00,76.3,74.1,29.83,SSE,157,1.0,9.0,93,0.00,,,0.00,VWS V15.00,2015-08-30 08:10:00,
2015-08-30 04:11:00,76.1,73.9,29.83,SSE,157,1.0,0.0,93,0.00,,,0.00,VWS V15.00,2015-08-30 08:11:00,
2015-08-30 04:12:00,76.0,73.5,29.83,ENE,76,4.0,8.0,92,0.00,,,0.00,VWS V15.00,2015-08-30 08:12:00,
2015-08-30 04:13:00,76.0,73.5,29.83,South,185,3.0,15.0,92,0.00,,,0.00,VWS V15.00,2015-08-30 08:13:00,
2015-08-30 04:14:00,75.8,73.0,29.83,SSE,159,5.0,15.0,91,0.00,,,0.00,VWS V15.00,2015-08-30 08:14:00,
2015-08-30 04:15:00,75.6,72.8,29.83,SSE,153,1.0,15.0,91,0.00,,,0.00,VWS V15.00,2015-08-30 08:15:00,
2015-08-30 04:16:00,75.4,72.6,29.83,SSE,154,1.0,4.0,91,0.00,,,0.00,VWS V15.00,2015-08-30 08:16:00,
2015-08-30 04:17:00,75.3,72.5,29.83,SSE,154,1.0,4.0,91,0.00,,,0.00,VWS V15.00,2015-08-30 08:17:00,
2015-08-30 04:18:00,75.3,72.5,29.83,SSE,155,1.0,4.0,91,0.00,,,0.00,VWS V15.00,2015-08-30 08:18:00,
2015-08-30 04:19:00,75.1,72.3,29.83,SSE,155,1.0,4.0,91,0.00,,,0.00,VWS V15.00,2015-08-30 08:19:00,
2015-08-30 04:20:00,75.1,72.3,29.83,SSE,155,1.0,4.0,91,0.00,,,0.00,VWS V15.00,2015-08-30 08:20:00,
2015-08-30 04:21:00,74.9,72.4,29.83,SSE,156,1.0,5.0,92,0.00,,,0.00,VWS V15.00,2015-08-30 08:21:00,
2015-08-30 04:22:00,74.9,72.4,29.83,SSE,156,1.0,5.0,92,0.00,,,0.00,VWS V15.00,2015-08-30 08:22:00,
2015-08-30 04:23:00,74.7,72.2,29.83,SSE,156,1.0,5.0,92,0.00,,,0.00,VWS V15.00,2015-08-30 08:23:00,
2015-08-30 04:24:00,74.7,72.2,29.83,SSE,157,1.0,5.0,92,0.00,,,0.00,VWS V15.00,2015-08-30 08:24:00,
2015-08-30 04:25:00,74.7,72.2,29.83,SSE,156,1.0,5.0,92,0.00,,,0.00,VWS V15.00,2015-08-30 08:25:00,
2015-08-30 04:26:00,74.6,71.8,29.83,SSE,157,2.0,2.0,91,0.00,,,0.00,VWS V15.00,2015-08-30 08:26:00,
2015-08-30 04:27:00,74.6,72.1,29.83,SSE,157,1.0,2.0,92,0.00,,,0.00,VWS V15.00,2015-08-30 08:27:00,
2015-08-30 04:28:00,74.6,72.1,29.83,SSE,156,1.0,2.0,92,0.00,,,0.00,VWS V15.00,2015-08-30 08:28:00,
2015-08-30 04:29:00,74.4,71.9,29.83,SSE,156,1.0,2.0,92,0.00,,,0.00,VWS V15.00,2015-08-30 08:29:00,
2015-08-30 04:30:00,74.4,71.9,29.82,SSE,156,1.0,2.0,92,0.00,,,0.00,VWS V15.00,2015-08-30 08:30:00,
2015-08-30 04:31:00,74.2,71.7,29.82,SSE,156,1.0,0.0,92,0.00,,,0.00,VWS V15.00,2015-08-30 08:31:00,
2015-08-30 04:32:00,74.2,71.7,29.82,SSE,149,3.0,3.0,92,0.00,,,0.00,VWS V15.00,2015-08-30 08:32:00,
2015-08-30 04:33:00,74.2,71.7,29.82,SSE,149,1.0,2.0,92,0.00,,,0.00,VWS V15.00,2015-08-30 08:33:00,
2015-08-30 04:34:00,74.0,71.5,29.82,SSE,149,1.0,2.0,92,0.00,,,0.00,VWS V15.00,2015-08-30 08:34:00,
2015-08-30 04:35:00,74.0,71.5,29.82,SSE,149,1.0,2.0,92,0.00,,,0.00,VWS V15.00,2015-08-30 08:35:00,
2015-08-30 04:36:00,74.0,71.5,29.82,SSE,149,1.0,4.0,92,0.00,,,0.00,VWS V15.00,2015-08-30 08:36:00,
2015-08-30 04:37:00,73.9,71.4,29.82,SSE,149,1.0,4.0,92,0.00,,,0.00,VWS V15.00,2015-08-30 08:37:00,
2015-08-30 04:38:00,73.9,71.4,29.82,SSE,149,1.0,4.0,92,0.00,,,0.00,VWS V15.00,2015-08-30 08:38:00,
2015-08-30 04:39:00,73.9,71.4,29.82,SSE,149,1.0,4.0,92,0.00,,,0.00,VWS V15.00,2015-08-30 08:39:00,
2015-08-30 04:40:00,73.9,71.4,29.82,SSE,149,1.0,4.0,92,0.00,,,0.00,VWS V15.00,2015-08-30 08:40:00,
2015-08-30 04:41:00,73.9,71.8,29.82,SSE,149,1.0,0.0,93,0.00,,,0.00,VWS V15.00,2015-08-30 08:41:00,
2015-08-30 04:42:00,73.7,71.6,29.82,SSE,149,1.0,0.0,93,0.00,,,0.00,VWS V15.00,2015-08-30 08:42:00,
2015-08-30 04:43:00,73.7,71.6,29.82,SSE,149,1.0,0.0,93,0.00,,,0.00,VWS V15.00,2015-08-30 08:43:00,
2015-08-30 04:44:00,73.7,71.6,29.82,SSE,149,1.0,0.0,93,0.00,,,0.00,VWS V15.00,2015-08-30 08:44:00,
2015-08-30 04:45:00,73.7,71.6,29.82,SSE,149,1.0,0.0,93,0.00,,,0.00,VWS V15.00,2015-08-30 08:45:00,
2015-08-30 04:46:00,73.7,71.6,29.82,SSE,149,1.0,0.0,93,0.00,,,0.00,VWS V15.00,2015-08-30 08:46:00,
2015-08-30 04:47:00,73.7,71.6,29.82,SSE,149,1.0,0.0,93,0.00,,,0.00,VWS V15.00,2015-08-30 08:47:00,
2015-08-30 04:48:00,73.7,71.6,29.82,SSE,149,1.0,0.0,93,0.00,,,0.00,VWS V15.00,2015-08-30 08:48:00,
2015-08-30 04:49:00,73.7,71.6,29.82,SSE,149,1.0,0.0,93,0.00,,,0.00,VWS V15.00,2015-08-30 08:49:00,
2015-08-30 04:50:00,73.7,71.6,29.82,SSE,149,1.0,0.0,93,0.00,,,0.00,VWS V15.00,2015-08-30 08:50:00,
2015-08-30 04:51:00,73.7,71.6,29.82,SSE,149,1.0,0.0,93,0.00,,,0.00,VWS V15.00,2015-08-30 08:51:00,
2015-08-30 04:52:00,73.7,71.6,29.82,SSE,149,1.0,0.0,93,0.00,,,0.00,VWS V15.00,2015-08-30 08:52:00,
2015-08-30 04:53:00,73.7,71.6,29.82,SSE,149,1.0,0.0,93,0.00,,,0.00,VWS V15.00,2015-08-30 08:53:00,
2015-08-30 04:54:00,73.7,71.6,29.82,SSE,149,1.0,0.0,93,0.00,,,0.00,VWS V15.00,2015-08-30 08:54:00,
2015-08-30 04:55:00,73.7,71.6,29.82,SSE,149,1.0,0.0,93,0.00,,,0.00,VWS V15.00,2015-08-30 08:55:00,
2015-08-30 04:56:00,73.7,71.6,29.82,SSE,149,1.0,0.0,93,0.00,,,0.00,VWS V15.00,2015-08-30 08:56:00,
2015-08-30 04:57:00,73.7,71.6,29.82,SSE,149,1.0,0.0,93,0.00,,,0.00,VWS V15.00,2015-08-30 08:57:00,
2015-08-30 04:58:00,73.7,71.9,29.82,SE,142,1.0,4.0,94,0.00,,,0.00,VWS V15.00,2015-08-30 08:58:00,
2015-08-30 04:59:00,73.7,71.6,29.82,SE,142,1.0,4.0,93,0.00,,,0.00,VWS V15.00,2015-08-30 08:59:00,
2015-08-30 05:00:00,73.7,71.6,29.84,SE,142,1.0,4.0,93,0.00,,,0.00,VWS V15.00,2015-08-30 09:00:00,
2015-08-30 05:01:00,73.5,71.4,29.84,SE,142,3.0,3.0,93,0.00,,,0.00,VWS V15.00,2015-08-30 09:01:00,
2015-08-30 05:02:00,73.5,71.4,29.84,SE,142,3.0,3.0,93,0.00,,,0.00,VWS V15.00,2015-08-30 09:02:00,
2015-08-30 05:03:00,73.5,71.4,29.84,SE,142,1.0,2.0,93,0.00,,,0.00,VWS V15.00,2015-08-30 09:03:00,
2015-08-30 05:04:00,73.5,71.4,29.84,SE,142,1.0,4.0,93,0.00,,,0.00,VWS V15.00,2015-08-30 09:04:00,
2015-08-30 05:05:00,73.5,71.7,29.84,SE,142,1.0,4.0,94,0.00,,,0.00,VWS V15.00,2015-08-30 09:05:00,
2015-08-30 05:06:00,73.5,71.7,29.84,SE,142,1.0,0.0,94,0.00,,,0.00,VWS V15.00,2015-08-30 09:06:00,
2015-08-30 05:07:00,73.5,71.7,29.84,SE,142,1.0,0.0,94,0.00,,,0.00,VWS V15.00,2015-08-30 09:07:00,
2015-08-30 05:08:00,73.5,71.7,29.84,SE,142,2.0,4.0,94,0.00,,,0.00,VWS V15.00,2015-08-30 09:08:00,
2015-08-30 05:09:00,73.5,71.7,29.84,SE,142,1.0,4.0,94,0.00,,,0.00,VWS V15.00,2015-08-30 09:09:00,
2015-08-30 05:10:00,73.5,71.7,29.84,SE,142,1.0,4.0,94,0.00,,,0.00,VWS V15.00,2015-08-30 09:10:00,
2015-08-30 05:11:00,73.5,71.7,29.84,SE,142,1.0,0.0,94,0.00,,,0.00,VWS V15.00,2015-08-30 09:11:00,
2015-08-30 05:12:00,73.5,71.7,29.84,SE,142,1.0,0.0,94,0.00,,,0.00,VWS V15.00,2015-08-30 09:12:00,
2015-08-30 05:13:00,73.5,71.7,29.84,SE,142,1.0,0.0,94,0.00,,,0.00,VWS V15.00,2015-08-30 09:13:00,
2015-08-30 05:14:00,73.5,71.7,29.84,SE,142,1.0,0.0,94,0.00,,,0.00,VWS V15.00,2015-08-30 09:14:00,
2015-08-30 05:15:00,73.5,71.7,29.83,SE,142,1.0,0.0,94,0.00,,,0.00,VWS V15.00,2015-08-30 09:15:00,
2015-08-30 05:16:00,73.5,71.7,29.83,SE,142,1.0,0.0,94,0.00,,,0.00,VWS V15.00,2015-08-30 09:16:00,
2015-08-30 05:17:00,73.5,71.7,29.83,SE,142,1.0,0.0,94,0.00,,,0.00,VWS V15.00,2015-08-30 09:17:00,
2015-08-30 05:18:00,73.5,71.7,29.83,SE,142,1.0,0.0,94,0.00,,,0.00,VWS V15.00,2015-08-30 09:18:00,
2015-08-30 05:19:00,73.5,71.7,29.83,SE,142,1.0,0.0,94,0.00,,,0.00,VWS V15.00,2015-08-30 09:19:00,
2015-08-30 05:20:00,73.5,71.7,29.83,SE,142,1.0,0.0,94,0.00,,,0.00,VWS V15.00,2015-08-30 09:20:00,
2015-08-30 05:21:00,73.5,71.7,29.83,SE,142,1.0,0.0,94,0.00,,,0.00,VWS V15.00,2015-08-30 09:21:00,
2015-08-30 05:22:00,73.5,71.7,29.83,SE,142,1.0,0.0,94,0.00,,,0.00,VWS V15.00,2015-08-30 09:22:00,
2015-08-30 05:23:00,73.5,71.7,29.83,SE,142,1.0,0.0,94,0.00,,,0.00,VWS V15.00,2015-08-30 09:23:00,
2015-08-30 05:24:00,73.5,71.7,29.83,SE,142,1.0,0.0,94,0.00,,,0.00,VWS V15.00,2015-08-30 09:24:00,
2015-08-30 05:25:00,73.5,71.7,29.83,SE,142,1.0,0.0,94,0.00,,,0.00,VWS V15.00,2015-08-30 09:25:00,
2015-08-30 05:26:00,73.5,71.7,29.83,SE,142,1.0,0.0,94,0.00,,,0.00,VWS V15.00,2015-08-30 09:26:00,
2015-08-30 05:27:00,73.5,71.7,29.83,SE,142,1.0,0.0,94,0.00,,,0.00,VWS V15.00,2015-08-30 09:27:00,
2015-08-30 05:28:00,73.5,71.7,29.83,SE,142,1.0,0.0,94,0.00,,,0.00,VWS V15.00,2015-08-30 09:28:00,
2015-08-30 05:29:00,73.5,71.7,29.83,SE,142,1.0,0.0,94,0.00,,,0.00,VWS V15.00,2015-08-30 09:29:00,
2015-08-30 05:30:00,73.7,71.6,29.82,SSE,149,1.0,0.0,93,0.00,,,0.00,VWS V15.00,2015-08-30 09:30:00,
2015-08-30 05:31:00,73.5,71.7,29.84,SE,142,1.0,0.0,94,0.00,,,0.00,VWS V15.00,2015-08-30 09:31:00,
2015-08-30 05:32:00,73.5,71.7,29.84,SE,142,1.0,0.0,94,0.00,,,0.00,VWS V15.00,2015-08-30 09:32:00,
2015-08-30 05:33:00,73.7,71.9,29.84,SE,142,1.0,1.0,94,0.00,,,0.00,VWS V15.00,2015-08-30 09:33:00,
2015-08-30 05:34:00,73.7,71.9,29.84,SE,142,1.0,1.0,94,0.00,,,0.00,VWS V15.00,2015-08-30 09:34:00,
2015-08-30 05:35:00,73.7,71.9,29.84,SE,142,1.0,1.0,94,0.00,,,0.00,VWS V15.00,2015-08-30 09:35:00,
2015-08-30 05:36:00,73.7,71.9,29.84,SE,142,1.0,1.0,94,0.00,,,0.00,VWS V15.00,2015-08-30 09:36:00,
2015-08-30 05:37:00,73.7,71.9,29.84,SE,142,1.0,1.0,94,0.00,,,0.00,VWS V15.00,2015-08-30 09:37:00,
2015-08-30 05:38:00,73.7,71.9,29.84,SE,142,1.0,1.0,94,0.00,,,0.00,VWS V15.00,2015-08-30 09:38:00,
2015-08-30 05:39:00,73.7,71.9,29.84,SE,142,1.0,1.0,94,0.00,,,0.00,VWS V15.00,2015-08-30 09:39:00,
2015-08-30 05:40:00,73.7,71.6,29.82,SSE,149,1.0,0.0,93,0.00,,,0.00,VWS V15.00,2015-08-30 09:40:00,
2015-08-30 05:41:00,73.7,71.9,29.84,SE,142,1.0,0.0,94,0.00,,,0.00,VWS V15.00,2015-08-30 09:41:00,
2015-08-30 05:42:00,73.7,71.9,29.84,SE,142,1.0,0.0,94,0.00,,,0.00,VWS V15.00,2015-08-30 09:42:00,
2015-08-30 05:43:00,73.9,72.1,29.84,SE,142,1.0,0.0,94,0.00,,,0.00,VWS V15.00,2015-08-30 09:43:00,
2015-08-30 05:44:00,73.9,72.4,29.84,SE,142,1.0,0.0,95,0.00,,,0.00,VWS V15.00,2015-08-30 09:44:00,
2015-08-30 05:45:00,73.9,72.4,29.83,SE,142,1.0,0.0,95,0.00,,,0.00,VWS V15.00,2015-08-30 09:45:00,
2015-08-30 05:46:00,73.9,72.4,29.83,SE,142,1.0,0.0,95,0.00,,,0.00,VWS V15.00,2015-08-30 09:46:00,
2015-08-30 05:47:00,73.9,72.4,29.83,SE,142,1.0,0.0,95,0.00,,,0.00,VWS V15.00,2015-08-30 09:47:00,
2015-08-30 05:48:00,73.9,72.4,29.83,SE,142,1.0,0.0,95,0.00,,,0.00,VWS V15.00,2015-08-30 09:48:00,
2015-08-30 05:49:00,73.9,72.4,29.83,SE,142,1.0,0.0,95,0.00,,,0.00,VWS V15.00,2015-08-30 09:49:00,
2015-08-30 05:50:00,73.9,72.4,29.83,SE,142,2.0,2.0,95,0.00,,,0.00,VWS V15.00,2015-08-30 09:50:00,
2015-08-30 05:51:00,74.0,72.5,29.83,SE,142,1.0,4.0,95,0.00,,,0.00,VWS V15.00,2015-08-30 09:51:00,
2015-08-30 05:52:00,74.0,72.5,29.83,SE,142,1.0,4.0,95,0.00,,,0.00,VWS V15.00,2015-08-30 09:52:00,
2015-08-30 05:53:00,74.0,72.5,29.83,SE,142,1.0,4.0,95,0.00,,,0.00,VWS V15.00,2015-08-30 09:53:00,
2015-08-30 05:54:00,74.0,72.5,29.83,SE,140,2.0,4.0,95,0.00,,,0.00,VWS V15.00,2015-08-30 09:54:00,
2015-08-30 05:55:00,74.0,72.5,29.83,SE,140,2.0,4.0,95,0.00,,,0.00,VWS V15.00,2015-08-30 09:55:00,
2015-08-30 05:56:00,74.2,72.7,29.83,SE,140,1.0,2.0,95,0.00,,,0.00,VWS V15.00,2015-08-30 09:56:00,
2015-08-30 05:57:00,74.2,72.7,29.83,SE,141,1.0,6.0,95,0.00,,,0.00,VWS V15.00,2015-08-30 09:57:00,
2015-08-30 05:58:00,74.2,72.7,29.83,SE,141,2.0,6.0,95,0.00,,,0.00,VWS V15.00,2015-08-30 09:58:00,
2015-08-30 05:59:00,74.4,72.9,29.83,SE,141,1.0,6.0,95,0.00,,,0.00,VWS V15.00,2015-08-30 09:59:00,
2015-08-30 06:00:00,74.4,72.9,29.83,SE,141,1.0,6.0,95,0.00,,,0.00,VWS V15.00,2015-08-30 10:00:00,
2015-08-30 06:01:00,73.5,71.7,29.84,SE,142,1.0,0.0,94,0.00,,,0.00,VWS V15.00,2015-08-30 10:01:00,
2015-08-30 06:02:00,74.6,73.1,29.83,SE,139,5.0,5.0,95,0.00,,,0.00,VWS V15.00,2015-08-30 10:02:00,
2015-08-30 06:03:00,74.6,73.1,29.83,SE,146,3.0,7.0,95,0.00,,,0.00,VWS V15.00,2015-08-30 10:03:00,
2015-08-30 06:04:00,74.7,73.2,29.83,SE,146,1.0,7.0,95,0.00,,,0.00,VWS V15.00,2015-08-30 10:04:00,
2015-08-30 06:05:00,74.7,73.2,29.83,SE,142,1.0,7.0,95,0.00,,,0.00,VWS V15.00,2015-08-30 10:05:00,
2015-08-30 06:06:00,74.9,73.4,29.83,SE,142,1.0,0.0,95,0.00,,,0.00,VWS V15.00,2015-08-30 10:06:00,
2015-08-30 06:07:00,74.9,73.4,29.83,SE,142,1.0,0.0,95,0.00,,,0.00,VWS V15.00,2015-08-30 10:07:00,
2015-08-30 06:08:00,75.1,73.6,29.83,SE,139,5.0,6.0,95,0.00,,,0.00,VWS V15.00,2015-08-30 10:08:00,
2015-08-30 06:09:00,75.1,73.6,29.83,ESE,107,3.0,9.0,95,0.00,,,0.00,VWS V15.00,2015-08-30 10:09:00,
2015-08-30 06:10:00,75.3,73.8,29.83,SE,137,5.0,9.0,95,0.00,,,0.00,VWS V15.00,2015-08-30 10:10:00,
2015-08-30 06:11:00,75.3,73.8,29.83,SE,137,1.0,4.0,95,0.00,,,0.00,VWS V15.00,2015-08-30 10:11:00,
2015-08-30 06:12:00,75.4,73.9,29.83,SE,137,1.0,4.0,95,0.00,,,0.00,VWS V15.00,2015-08-30 10:12:00,
2015-08-30 06:13:00,75.4,73.9,29.83,South,171,7.0,9.0,95,0.00,,,0.00,VWS V15.00,2015-08-30 10:13:00,
2015-08-30 06:14:00,75.6,74.1,29.83,SSE,166,2.0,9.0,95,0.00,,,0.00,VWS V15.00,2015-08-30 10:14:00,
2015-08-30 06:15:00,75.6,74.1,29.83,SSE,165,5.0,9.0,95,0.00,,,0.00,VWS V15.00,2015-08-30 10:15:00,
2015-08-30 06:16:00,75.8,74.3,29.83,SSE,162,6.0,6.0,95,0.00,,,0.00,VWS V15.00,2015-08-30 10:16:00,
2015-08-30 06:17:00,75.8,74.3,29.83,SSE,150,6.0,6.0,95,0.00,,,0.00,VWS V15.00,2015-08-30 10:17:00,
2015-08-30 06:18:00,75.8,74.3,29.83,SSE,148,5.0,6.0,95,0.00,,,0.00,VWS V15.00,2015-08-30 10:18:00,
2015-08-30 06:19:00,76.0,74.5,29.83,SSE,153,3.0,7.0,95,0.00,,,0.00,VWS V15.00,2015-08-30 10:19:00,
2015-08-30 06:20:00,76.0,74.5,29.83,South,173,3.0,7.0,95,0.00,,,0.00,VWS V15.00,2015-08-30 10:20:00,
2015-08-30 06:21:00,76.0,74.5,29.83,SE,125,1.0,6.0,95,0.00,,,0.00,VWS V15.00,2015-08-30 10:21:00,
2015-08-30 06:22:00,76.0,74.5,29.83,East,94,3.0,7.0,95,0.00,,,0.00,VWS V15.00,2015-08-30 10:22:00,
2015-08-30 06:23:00,76.1,74.6,29.83,SE,130,1.0,7.0,95,0.00,,,0.00,VWS V15.00,2015-08-30 10:23:00,
2015-08-30 06:24:00,76.1,74.6,29.83,SE,126,1.0,7.0,95,0.00,,,0.00,VWS V15.00,2015-08-30 10:24:00,
2015-08-30 06:25:00,76.1,74.6,29.83,SE,126,1.0,7.0,95,0.00,,,0.00,VWS V15.00,2015-08-30 10:25:00,
2015-08-30 06:26:00,76.3,74.8,29.83,SE,126,6.0,6.0,95,0.00,,,0.00,VWS V15.00,2015-08-30 10:26:00,
2015-08-30 06:27:00,76.3,74.8,29.83,SE,134,1.0,6.0,95,0.00,,,0.00,VWS V15.00,2015-08-30 10:27:00,
2015-08-30 06:28:00,76.3,74.8,29.83,SE,133,3.0,6.0,95,0.00,,,0.00,VWS V15.00,2015-08-30 10:28:00,
2015-08-30 06:29:00,76.5,75.0,29.83,SE,142,1.0,7.0,95,0.00,,,0.00,VWS V15.00,2015-08-30 10:29:00,
2015-08-30 06:30:00,76.5,75.0,29.82,SE,142,1.0,7.0,95,0.00,,,0.00,VWS V15.00,2015-08-30 10:30:00,
2015-08-30 06:31:00,76.5,75.0,29.82,SE,142,1.0,0.0,95,0.00,,,0.00,VWS V15.00,2015-08-30 10:31:00,
2015-08-30 06:32:00,76.5,75.0,29.82,SSE,148,1.0,7.0,95,0.00,,,0.00,VWS V15.00,2015-08-30 10:32:00,
2015-08-30 06:33:00,76.7,75.2,29.82,SSE,148,2.0,7.0,95,0.00,,,0.00,VWS V15.00,2015-08-30 10:33:00,
2015-08-30 06:34:00,76.7,75.2,29.82,SSE,148,1.0,7.0,95,0.00,,,0.00,VWS V15.00,2015-08-30 10:34:00,
2015-08-30 06:35:00,76.7,75.2,29.82,SSE,148,1.0,7.0,95,0.00,,,0.00,VWS V15.00,2015-08-30 10:35:00,
2015-08-30 06:36:00,76.7,75.2,29.82,SSE,148,1.0,2.0,95,0.00,,,0.00,VWS V15.00,2015-08-30 10:36:00,
2015-08-30 06:37:00,76.8,75.3,29.82,SSE,150,2.0,4.0,95,0.00,,,0.00,VWS V15.00,2015-08-30 10:37:00,
2015-08-30 06:38:00,76.8,74.9,29.82,SSE,150,1.0,4.0,94,0.00,,,0.00,VWS V15.00,2015-08-30 10:38:00,
2015-08-30 06:39:00,76.8,74.9,29.82,SSE,150,1.0,4.0,94,0.00,,,0.00,VWS V15.00,2015-08-30 10:39:00,
2015-08-30 06:40:00,76.8,74.9,29.82,SSE,150,2.0,4.0,94,0.00,,,0.00,VWS V15.00,2015-08-30 10:40:00,
2015-08-30 06:41:00,76.8,74.9,29.82,SSE,150,1.0,1.0,94,0.00,,,0.00,VWS V15.00,2015-08-30 10:41:00,
2015-08-30 06:42:00,76.8,74.9,29.82,SSE,150,1.0,1.0,94,0.00,,,0.00,VWS V15.00,2015-08-30 10:42:00,
2015-08-30 06:43:00,76.8,74.9,29.82,SSE,150,1.0,1.0,94,0.00,,,0.00,VWS V15.00,2015-08-30 10:43:00,
2015-08-30 06:44:00,77.0,75.1,29.82,SSE,150,1.0,1.0,94,0.00,,,0.00,VWS V15.00,2015-08-30 10:44:00,
2015-08-30 06:45:00,77.0,75.1,29.82,SSE,148,1.0,5.0,94,0.00,,,0.00,VWS V15.00,2015-08-30 10:45:00,
2015-08-30 06:46:00,77.0,75.1,29.82,SSE,148,1.0,0.0,94,0.00,,,0.00,VWS V15.00,2015-08-30 10:46:00,
2015-08-30 06:47:00,77.0,75.1,29.82,SSE,148,1.0,0.0,94,0.00,,,0.00,VWS V15.00,2015-08-30 10:47:00,
2015-08-30 06:48:00,77.0,75.1,29.82,SSE,148,1.0,1.0,94,0.00,,,0.00,VWS V15.00,2015-08-30 10:48:00,
2015-08-30 06:49:00,77.0,75.1,29.82,SSE,148,1.0,1.0,94,0.00,,,0.00,VWS V15.00,2015-08-30 10:49:00,
2015-08-30 06:50:00,77.0,75.1,29.82,SSE,148,1.0,1.0,94,0.00,,,0.00,VWS V15.00,2015-08-30 10:50:00,
2015-08-30 06:51:00,77.0,75.1,29.82,SSE,148,1.0,5.0,94,0.00,,,0.00,VWS V15.00,2015-08-30 10:51:00,
2015-08-30 06:52:00,77.0,75.1,29.82,SSE,148,1.0,5.0,94,0.00,,,0.00,VWS V15.00,2015-08-30 10:52:00,
2015-08-30 06:53:00,77.0,75.1,29.82,SSE,148,1.0,5.0,94,0.00,,,0.00,VWS V15.00,2015-08-30 10:53:00,
2015-08-30 06:54:00,74.9,73.4,29.83,SE,142,1.0,0.0,95,0.00,,,0.00,VWS V15.00,2015-08-30 10:54:00,
2015-08-30 06:55:00,77.2,75.3,29.82,SSE,148,1.0,5.0,94,0.00,,,0.00,VWS V15.00,2015-08-30 10:55:00,
2015-08-30 06:56:00,77.2,75.3,29.82,SSE,148,1.0,0.0,94,0.00,,,0.00,VWS V15.00,2015-08-30 10:56:00,
2015-08-30 06:57:00,77.2,75.3,29.82,SSE,148,6.0,6.0,94,0.00,,,0.00,VWS V15.00,2015-08-30 10:57:00,
2015-08-30 06:58:00,77.2,75.3,29.82,SSE,148,3.0,5.0,94,0.00,,,0.00,VWS V15.00,2015-08-30 10:58:00,
2015-08-30 06:59:00,77.2,75.3,29.82,SSE,147,1.0,5.0,94,0.00,,,0.00,VWS V15.00,2015-08-30 10:59:00,
2015-08-30 07:00:00,77.2,75.3,29.82,SSE,147,1.0,5.0,94,0.00,,,0.00,VWS V15.00,2015-08-30 11:00:00,
2015-08-30 07:01:00,77.2,75.3,29.82,SE,144,5.0,5.0,94,0.00,,,0.00,VWS V15.00,2015-08-30 11:01:00,
2015-08-30 07:02:00,77.2,75.3,29.82,SE,144,5.0,5.0,94,0.00,,,0.00,VWS V15.00,2015-08-30 11:02:00,
2015-08-30 07:03:00,77.4,75.5,29.82,SE,144,1.0,5.0,94,0.00,,,0.00,VWS V15.00,2015-08-30 11:03:00,
2015-08-30 07:04:00,77.4,75.5,29.82,SE,142,1.0,5.0,94,0.00,,,0.00,VWS V15.00,2015-08-30 11:04:00,
2015-08-30 07:05:00,77.4,75.5,29.82,SE,142,1.0,5.0,94,0.00,,,0.00,VWS V15.00,2015-08-30 11:05:00,
2015-08-30 07:06:00,77.4,75.5,29.82,SE,142,5.0,5.0,94,0.00,,,0.00,VWS V15.00,2015-08-30 11:06:00,
2015-08-30 07:07:00,77.4,75.5,29.82,SE,142,1.0,4.0,94,0.00,,,0.00,VWS V15.00,2015-08-30 11:07:00,
2015-08-30 07:08:00,77.4,75.5,29.82,SE,142,1.0,4.0,94,0.00,,,0.00,VWS V15.00,2015-08-30 11:08:00,
2015-08-30 07:09:00,77.6,75.7,29.82,SE,142,1.0,4.0,94,0.00,,,0.00,VWS V15.00,2015-08-30 11:09:00,
2015-08-30 07:10:00,77.6,75.7,29.82,SE,142,1.0,4.0,94,0.00,,,0.00,VWS V15.00,2015-08-30 11:10:00,
2015-08-30 07:11:00,77.6,75.7,29.82,SE,142,1.0,0.0,94,0.00,,,0.00,VWS V15.00,2015-08-30 11:11:00,
2015-08-30 07:12:00,77.6,75.7,29.82,SE,142,1.0,0.0,94,0.00,,,0.00,VWS V15.00,2015-08-30 11:12:00,
2015-08-30 07:13:00,77.6,75.7,29.82,SE,142,1.0,0.0,94,0.00,,,0.00,VWS V15.00,2015-08-30 11:13:00,
2015-08-30 07:14:00,77.6,75.7,29.82,SE,142,1.0,1.0,94,0.00,,,0.00,VWS V15.00,2015-08-30 11:14:00,
2015-08-30 07:15:00,77.7,75.8,29.82,SE,142,1.0,1.0,94,0.00,,,0.00,VWS V15.00,2015-08-30 11:15:00,
2015-08-30 07:16:00,77.7,75.8,29.82,SE,142,3.0,3.0,94,0.00,,,0.00,VWS V15.00,2015-08-30 11:16:00,
2015-08-30 07:17:00,77.7,75.8,29.82,SE,142,1.0,2.0,94,0.00,,,0.00,VWS V15.00,2015-08-30 11:17:00,
2015-08-30 07:18:00,77.7,75.8,29.82,SE,142,1.0,2.0,94,0.00,,,0.00,VWS V15.00,2015-08-30 11:18:00,
2015-08-30 07:19:00,77.7,75.8,29.82,SE,142,1.0,2.0,94,0.00,,,0.00,VWS V15.00,2015-08-30 11:19:00,
2015-08-30 07:20:00,77.7,75.8,29.82,SE,142,1.0,2.0,94,0.00,,,0.00,VWS V15.00,2015-08-30 11:20:00,
2015-08-30 07:21:00,77.7,75.8,29.82,SE,142,1.0,0.0,94,0.00,,,0.00,VWS V15.00,2015-08-30 11:21:00,
2015-08-30 07:22:00,77.7,75.8,29.82,SE,142,1.0,0.0,94,0.00,,,0.00,VWS V15.00,2015-08-30 11:22:00,
2015-08-30 07:23:00,77.9,76.0,29.82,SE,142,1.0,0.0,94,0.00,,,0.00,VWS V15.00,2015-08-30 11:23:00,
2015-08-30 07:24:00,77.9,76.0,29.82,SE,142,1.0,0.0,94,0.00,,,0.00,VWS V15.00,2015-08-30 11:24:00,
2015-08-30 07:25:00,77.9,76.0,29.82,SE,142,2.0,4.0,94,0.00,,,0.00,VWS V15.00,2015-08-30 11:25:00,
2015-08-30 07:26:00,77.9,76.0,29.82,SE,142,1.0,2.0,94,0.00,,,0.00,VWS V15.00,2015-08-30 11:26:00,
2015-08-30 07:27:00,77.9,76.0,29.82,SE,142,1.0,2.0,94,0.00,,,0.00,VWS V15.00,2015-08-30 11:27:00,
2015-08-30 07:28:00,77.9,76.0,29.82,SE,142,1.0,2.0,94,0.00,,,0.00,VWS V15.00,2015-08-30 11:28:00,
2015-08-30 07:29:00,77.9,76.0,29.82,SE,141,2.0,2.0,94,0.00,,,0.00,VWS V15.00,2015-08-30 11:29:00,
2015-08-30 07:30:00,77.9,76.0,29.82,SE,146,2.0,6.0,94,0.00,,,0.00,VWS V15.00,2015-08-30 11:30:00,
2015-08-30 07:31:00,78.1,76.2,29.82,SE,146,3.0,3.0,94,0.00,,,0.00,VWS V15.00,2015-08-30 11:31:00,
2015-08-30 07:32:00,78.1,76.2,29.82,SE,146,1.0,4.0,94,0.00,,,0.00,VWS V15.00,2015-08-30 11:32:00,
2015-08-30 07:33:00,78.1,76.2,29.82,SE,146,1.0,4.0,94,0.00,,,0.00,VWS V15.00,2015-08-30 11:33:00,
2015-08-30 07:34:00,78.1,76.2,29.82,SE,138,3.0,5.0,94,0.00,,,0.00,VWS V15.00,2015-08-30 11:34:00,
2015-08-30 07:35:00,78.1,76.2,29.82,SE,138,1.0,5.0,94,0.00,,,0.00,VWS V15.00,2015-08-30 11:35:00,
2015-08-30 07:36:00,78.1,76.2,29.82,SE,138,1.0,0.0,94,0.00,,,0.00,VWS V15.00,2015-08-30 11:36:00,
2015-08-30 07:37:00,78.1,76.2,29.82,SE,138,1.0,0.0,94,0.00,,,0.00,VWS V15.00,2015-08-30 11:37:00,
2015-08-30 07:38:00,78.1,76.2,29.82,SE,138,1.0,0.0,94,0.00,,,0.00,VWS V15.00,2015-08-30 11:38:00,
2015-08-30 07:39:00,78.1,76.2,29.82,SE,138,3.0,3.0,94,0.00,,,0.00,VWS V15.00,2015-08-30 11:39:00,
2015-08-30 07:40:00,78.1,76.2,29.82,SE,138,1.0,5.0,94,0.00,,,0.00,VWS V15.00,2015-08-30 11:40:00,
2015-08-30 07:41:00,78.3,76.4,29.82,SE,138,1.0,0.0,94,0.00,,,0.00,VWS V15.00,2015-08-30 11:41:00,
2015-08-30 07:42:00,78.3,76.4,29.82,SE,139,6.0,6.0,94,0.00,,,0.00,VWS V15.00,2015-08-30 11:42:00,
2015-08-30 07:43:00,78.3,76.1,29.82,SE,139,1.0,6.0,93,0.00,,,0.00,VWS V15.00,2015-08-30 11:43:00,
2015-08-30 07:44:00,78.3,76.1,29.82,SE,139,1.0,6.0,93,0.00,,,0.00,VWS V15.00,2015-08-30 11:44:00,
2015-08-30 07:45:00,78.3,76.1,29.83,SE,139,1.0,6.0,93,0.00,,,0.00,VWS V15.00,2015-08-30 11:45:00,
2015-08-30 07:46:00,78.3,76.1,29.83,SE,139,1.0,0.0,93,0.00,,,0.00,VWS V15.00,2015-08-30 11:46:00,
2015-08-30 07:47:00,78.3,76.1,29.83,SE,140,6.0,6.0,93,0.00,,,0.00,VWS V15.00,2015-08-30 11:47:00,
2015-08-30 07:48:00,78.3,76.1,29.83,SE,140,1.0,6.0,93,0.00,,,0.00,VWS V15.00,2015-08-30 11:48:00,
2015-08-30 07:49:00,78.3,76.1,29.83,SE,138,2.0,6.0,93,0.00,,,0.00,VWS V15.00,2015-08-30 11:49:00,
2015-08-30 07:50:00,78.5,76.3,29.83,SE,144,1.0,7.0,93,0.00,,,0.00,VWS V15.00,2015-08-30 11:50:00,
2015-08-30 07:51:00,78.5,76.3,29.83,SE,144,2.0,2.0,93,0.00,,,0.00,VWS V15.00,2015-08-30 11:51:00,
2015-08-30 07:52:00,78.5,76.3,29.83,SE,144,1.0,4.0,93,0.00,,,0.00,VWS V15.00,2015-08-30 11:52:00,
2015-08-30 07:53:00,78.5,76.3,29.83,SE,142,1.0,4.0,93,0.00,,,0.00,VWS V15.00,2015-08-30 11:53:00,
2015-08-30 07:54:00,78.5,76.3,29.83,SE,143,1.0,4.0,93,0.00,,,0.00,VWS V15.00,2015-08-30 11:54:00,
2015-08-30 07:55:00,78.5,76.3,29.83,SE,143,1.0,4.0,93,0.00,,,0.00,VWS V15.00,2015-08-30 11:55:00,
2015-08-30 07:56:00,78.5,76.3,29.83,SE,143,1.0,0.0,93,0.00,,,0.00,VWS V15.00,2015-08-30 11:56:00,
2015-08-30 07:57:00,78.5,76.3,29.83,SE,143,1.0,0.0,93,0.00,,,0.00,VWS V15.00,2015-08-30 11:57:00,
2015-08-30 07:58:00,78.6,76.4,29.83,SE,143,1.0,0.0,93,0.00,,,0.00,VWS V15.00,2015-08-30 11:58:00,
2015-08-30 07:59:00,78.6,76.4,29.83,SE,143,2.0,5.0,93,0.00,,,0.00,VWS V15.00,2015-08-30 11:59:00,
2015-08-30 08:00:00,78.6,76.4,29.83,SE,143,1.0,5.0,93,0.00,,,0.00,VWS V15.00,2015-08-30 12:00:00,
2015-08-30 08:01:00,78.6,76.4,29.83,SE,143,3.0,5.0,93,0.00,,,0.00,VWS V15.00,2015-08-30 12:01:00,
2015-08-30 08:02:00,77.6,75.7,29.82,SE,142,1.0,1.0,94,0.00,,,0.00,VWS V15.00,2015-08-30 12:02:00,
2015-08-30 08:03:00,78.6,76.4,29.83,SE,143,6.0,6.0,93,0.00,,,0.00,VWS V15.00,2015-08-30 12:03:00,
2015-08-30 08:04:00,78.6,76.4,29.83,SE,143,1.0,5.0,93,0.00,,,0.00,VWS V15.00,2015-08-30 12:04:00,
2015-08-30 08:05:00,78.6,76.4,29.83,SE,143,1.0,5.0,93,0.00,,,0.00,VWS V15.00,2015-08-30 12:05:00,
2015-08-30 08:06:00,78.6,76.4,29.83,SE,143,1.0,0.0,93,0.00,,,0.00,VWS V15.00,2015-08-30 12:06:00,
2015-08-30 08:07:00,78.6,76.4,29.83,SE,139,1.0,5.0,93,0.00,,,0.00,VWS V15.00,2015-08-30 12:07:00,
2015-08-30 08:08:00,78.6,76.1,29.83,SE,139,1.0,5.0,92,0.00,,,0.00,VWS V15.00,2015-08-30 12:08:00,
2015-08-30 08:09:00,78.6,76.1,29.83,SE,139,1.0,5.0,92,0.00,,,0.00,VWS V15.00,2015-08-30 12:09:00,
2015-08-30 08:10:00,78.8,76.3,29.83,SE,139,1.0,5.0,92,0.00,,,0.00,VWS V15.00,2015-08-30 12:10:00,
2015-08-30 08:11:00,78.8,76.3,29.83,SE,139,1.0,0.0,92,0.00,,,0.00,VWS V15.00,2015-08-30 12:11:00,
2015-08-30 08:12:00,78.8,76.3,29.83,SE,139,1.0,0.0,92,0.00,,,0.00,VWS V15.00,2015-08-30 12:12:00,
2015-08-30 08:13:00,78.8,76.3,29.83,SE,139,1.0,0.0,92,0.00,,,0.00,VWS V15.00,2015-08-30 12:13:00,
2015-08-30 08:14:00,78.8,76.3,29.83,SE,139,1.0,0.0,92,0.00,,,0.00,VWS V15.00,2015-08-30 12:14:00,
2015-08-30 08:15:00,78.8,76.3,29.84,SE,139,1.0,0.0,92,0.00,,,0.00,VWS V15.00,2015-08-30 12:15:00,
2015-08-30 08:16:00,79.0,76.5,29.84,SE,139,1.0,0.0,92,0.00,,,0.00,VWS V15.00,2015-08-30 12:16:00,
2015-08-30 08:17:00,79.0,76.5,29.84,SE,139,3.0,3.0,92,0.00,,,0.00,VWS V15.00,2015-08-30 12:17:00,
2015-08-30 08:18:00,79.0,76.5,29.84,SE,140,1.0,5.0,92,0.00,,,0.00,VWS V15.00,2015-08-30 12:18:00,
2015-08-30 08:19:00,79.0,76.5,29.84,SE,140,1.0,5.0,92,0.00,,,0.00,VWS V15.00,2015-08-30 12:19:00,
2015-08-30 08:20:00,79.0,76.5,29.84,SE,140,3.0,5.0,92,0.00,,,0.00,VWS V15.00,2015-08-30 12:20:00,
2015-08-30 08:21:00,79.2,76.7,29.84,SE,140,1.0,2.0,92,0.00,,,0.00,VWS V15.00,2015-08-30 12:21:00,
2015-08-30 08:22:00,79.2,76.7,29.84,SE,140,1.0,2.0,92,0.00,,,0.00,VWS V15.00,2015-08-30 12:22:00,
2015-08-30 08:23:00,79.2,76.7,29.84,SE,140,1.0,2.0,92,0.00,,,0.00,VWS V15.00,2015-08-30 12:23:00,
2015-08-30 08:24:00,79.2,76.7,29.84,SE,140,1.0,2.0,92,0.00,,,0.00,VWS V15.00,2015-08-30 12:24:00,
2015-08-30 08:25:00,79.2,76.7,29.84,SE,142,1.0,6.0,92,0.00,,,0.00,VWS V15.00,2015-08-30 12:25:00,
2015-08-30 08:26:00,79.2,76.7,29.84,SE,142,1.0,0.0,92,0.00,,,0.00,VWS V15.00,2015-08-30 12:26:00,
2015-08-30 08:27:00,79.2,76.7,29.84,SE,142,1.0,0.0,92,0.00,,,0.00,VWS V15.00,2015-08-30 12:27:00,
2015-08-30 08:28:00,79.4,76.9,29.84,SE,142,1.0,0.0,92,0.00,,,0.00,VWS V15.00,2015-08-30 12:28:00,
2015-08-30 08:29:00,79.4,76.9,29.84,SE,142,1.0,0.0,92,0.00,,,0.00,VWS V15.00,2015-08-30 12:29:00,
2015-08-30 08:30:00,78.3,76.4,29.82,SE,139,1.0,6.0,94,0.00,,,0.00,VWS V15.00,2015-08-30 12:30:00,
2015-08-30 08:31:00,79.4,76.9,29.85,SE,142,1.0,0.0,92,0.00,,,0.00,VWS V15.00,2015-08-30 12:31:00,
2015-08-30 08:32:00,79.4,76.9,29.85,SE,142,1.0,0.0,92,0.00,,,0.00,VWS V15.00,2015-08-30 12:32:00,
2015-08-30 08:33:00,79.4,76.9,29.85,SE,142,1.0,0.0,92,0.00,,,0.00,VWS V15.00,2015-08-30 12:33:00,
2015-08-30 08:34:00,79.6,77.1,29.85,SE,142,1.0,1.0,92,0.00,,,0.00,VWS V15.00,2015-08-30 12:34:00,
2015-08-30 08:35:00,79.6,77.1,29.85,SE,142,1.0,1.0,92,0.00,,,0.00,VWS V15.00,2015-08-30 12:35:00,
2015-08-30 08:36:00,79.6,77.1,29.85,SE,142,1.0,0.0,92,0.00,,,0.00,VWS V15.00,2015-08-30 12:36:00,
2015-08-30 08:37:00,79.6,77.1,29.85,SE,142,1.0,0.0,92,0.00,,,0.00,VWS V15.00,2015-08-30 12:37:00,
2015-08-30 08:38:00,79.6,77.1,29.85,SE,142,1.0,0.0,92,0.00,,,0.00,VWS V15.00,2015-08-30 12:38:00,
2015-08-30 08:39:00,79.6,77.1,29.85,SE,142,1.0,0.0,92,0.00,,,0.00,VWS V15.00,2015-08-30 12:39:00,
2015-08-30 08:40:00,79.6,77.1,29.85,SE,142,1.0,0.0,92,0.00,,,0.00,VWS V15.00,2015-08-30 12:40:00,
2015-08-30 08:41:00,79.6,77.1,29.85,SE,142,1.0,2.0,92,0.00,,,0.00,VWS V15.00,2015-08-30 12:41:00,
2015-08-30 08:42:00,79.6,77.1,29.85,SE,142,1.0,2.0,92,0.00,,,0.00,VWS V15.00,2015-08-30 12:42:00,
2015-08-30 08:43:00,79.6,77.1,29.85,SE,142,1.0,2.0,92,0.00,,,0.00,VWS V15.00,2015-08-30 12:43:00,
2015-08-30 08:44:00,79.8,77.3,29.85,SE,142,3.0,4.0,92,0.00,,,0.00,VWS V15.00,2015-08-30 12:44:00,
2015-08-30 08:45:00,79.8,77.3,29.85,SE,142,1.0,4.0,92,0.00,,,0.00,VWS V15.00,2015-08-30 12:45:00,
2015-08-30 08:46:00,79.8,77.3,29.85,SE,142,1.0,0.0,92,0.00,,,0.00,VWS V15.00,2015-08-30 12:46:00,
2015-08-30 08:47:00,79.8,77.3,29.85,SE,142,1.0,0.0,92,0.00,,,0.00,VWS V15.00,2015-08-30 12:47:00,
2015-08-30 08:48:00,79.8,77.3,29.85,SE,142,1.0,0.0,92,0.00,,,0.00,VWS V15.00,2015-08-30 12:48:00,
2015-08-30 08:49:00,79.8,77.3,29.85,SE,142,1.0,4.0,92,0.00,,,0.00,VWS V15.00,2015-08-30 12:49:00,
2015-08-30 08:50:00,79.8,77.3,29.85,SE,142,1.0,4.0,92,0.00,,,0.00,VWS V15.00,2015-08-30 12:50:00,
2015-08-30 08:51:00,79.8,77.3,29.85,SE,142,1.0,0.0,92,0.00,,,0.00,VWS V15.00,2015-08-30 12:51:00,
2015-08-30 08:52:00,79.9,77.4,29.85,SE,142,1.0,1.0,92,0.00,,,0.00,VWS V15.00,2015-08-30 12:52:00,
2015-08-30 08:53:00,79.9,77.4,29.85,SE,142,1.0,2.0,92,0.00,,,0.00,VWS V15.00,2015-08-30 12:53:00,
2015-08-30 08:54:00,79.9,77.4,29.85,SE,142,1.0,2.0,92,0.00,,,0.00,VWS V15.00,2015-08-30 12:54:00,
2015-08-30 08:55:00,79.9,77.4,29.85,SE,142,1.0,2.0,92,0.00,,,0.00,VWS V15.00,2015-08-30 12:55:00,
2015-08-30 08:56:00,79.9,77.4,29.85,SE,142,1.0,0.0,92,0.00,,,0.00,VWS V15.00,2015-08-30 12:56:00,
2015-08-30 08:57:00,79.9,77.0,29.85,SE,142,1.0,1.0,91,0.00,,,0.00,VWS V15.00,2015-08-30 12:57:00,
2015-08-30 08:58:00,80.1,77.2,29.85,SE,142,1.0,1.0,91,0.00,,,0.00,VWS V15.00,2015-08-30 12:58:00,
2015-08-30 08:59:00,80.1,77.2,29.85,SE,142,1.0,1.0,91,0.00,,,0.00,VWS V15.00,2015-08-30 12:59:00,
2015-08-30 09:00:00,80.1,77.2,29.85,SE,142,1.0,1.0,91,0.00,,,0.00,VWS V15.00,2015-08-30 13:00:00,
2015-08-30 09:01:00,80.1,77.2,29.85,SE,142,1.0,0.0,91,0.00,,,0.00,VWS V15.00,2015-08-30 13:01:00,
2015-08-30 09:02:00,80.1,77.2,29.85,SE,143,2.0,6.0,91,0.00,,,0.00,VWS V15.00,2015-08-30 13:02:00,
2015-08-30 09:03:00,80.3,77.4,29.85,SE,143,1.0,6.0,91,0.00,,,0.00,VWS V15.00,2015-08-30 13:03:00,
2015-08-30 09:04:00,80.3,77.4,29.85,SE,141,6.0,6.0,91,0.00,,,0.00,VWS V15.00,2015-08-30 13:04:00,
2015-08-30 09:05:00,80.3,77.4,29.85,SE,142,5.0,6.0,91,0.00,,,0.00,VWS V15.00,2015-08-30 13:05:00,
2015-08-30 09:06:00,80.3,77.4,29.85,SE,142,1.0,2.0,91,0.00,,,0.00,VWS V15.00,2015-08-30 13:06:00,
2015-08-30 09:07:00,80.3,77.4,29.85,SE,142,1.0,2.0,91,0.00,,,0.00,VWS V15.00,2015-08-30 13:07:00,
2015-08-30 09:08:00,80.5,77.6,29.85,SE,141,3.0,4.0,91,0.00,,,0.00,VWS V15.00,2015-08-30 13:08:00,
2015-08-30 09:09:00,80.5,77.3,29.85,SE,142,1.0,5.0,90,0.00,,,0.00,VWS V15.00,2015-08-30 13:09:00,
2015-08-30 09:28:00,79.6,77.1,29.85,SE,142,3.0,3.0,92,0.00,,,0.00,VWS V15.00,2015-08-30 13:28:00,